Weather in Pavlovsk

Russia / Altai Krai     53°19′42″N   82°58′15″E
temp.,
°C
wind,
m/s
gust,
m/s
humid.,
%
clouds,
%
prec.,
mm/h
press.,
hPa
HPBL,
m
27 november, sat
sat2701:00−11ssw6139192 0.0 1038387
04:00−12ssw6149195 0.0 1038363
07:00−11ssw71490100 0.0 1039510
10:00−11ssw71589100 0.0 1039552
13:00−9ssw81691100 0.1 1039642
16:00−8ssw91790100 0.2 1037661
19:00−8ssw101986100 0.3 1036721
22:00−7sw101986100 0.0 1035768
28 november, sun
sun2801:00−7sw102085100 0.1 1034765
04:00−6sw101983100 0.0 1033762
07:00−6sw91882100 0.0 1034714
10:00−6sw81783100 0.0 1035629
13:00−6wsw81587100 0.0 1036618
16:00−5sw7148685 0.1 1037539
19:00−7sw6138685 0.1 1038391
22:00−8sw511895 0.0 1039281
29 november, mon
mon2901:00−11sw38935 0.0 1039133
04:00−12sw36925 0.0 103984
07:00−13ssw349097 0.0 103960
10:00−11ssw3588100 0.0 103864
13:00−7ssw358389 0.0 1036136
16:00−8s248884 0.0 103554
19:00−12ssw34885 0.0 103541
22:00−12ssw368582 0.0 103463
30 november, tue
tue3001:00−12ssw3783100 0.0 103378
04:00−11ssw3782100 0.0 103286
07:00−10ssw4981100 0.0 1031108
10:00−8ssw51379100 0.0 1031206
13:00−5sw4118081 0.0 1031280
16:00−5ssw498417 0.0 1030174
19:00−9ssw388768 0.0 103199
22:00−12sw35895 0.0 103259
1 december, wed
wed101:00−12ssw36885 0.0 103259
04:00−11ssw36865 0.0 103268
07:00−12ssw35865 0.0 103252
10:00−10s410826 0.0 1032115
13:00−6s412815 0.0 1031227
16:00−6s39835 0.0 1029138
19:00−10s37845 0.0 102863
22:00−12s35865 0.0 102837